<?xml version="1.0"?>
<gpx xmlns="http://www.topografix.com/GPX/1/1" xmlns:xsi="http://www.w3.org/2001/XMLSchema-instance" version="1.1" creator="GPX RubyGem 1.0.0 -- http://dougfales.github.io/gpx/" xsi:schemaLocation="http://www.topografix.com/GPX/1/1 http://www.topografix.com/GPX/1/1/gpx.xsd">
  <metadata>
    <name/>
    <time>2026-05-03T21:41:37+00:00</time>
    <bound minlat="90.0" minlon="180.0" maxlat="-90.0" maxlon="-180.0"/>
  </metadata>
  <trk>
    <name/>
    <trkseg>
      <trkpt lat="38.788808" lon="-9.293959">
        <time>1970-01-01T00:00:00+00:00</time>
        <ele>213.0</ele>
      </trkpt>
      <trkpt lat="38.788685" lon="-9.294054">
        <time>1970-01-01T00:00:00+00:00</time>
        <ele>213.0</ele>
      </trkpt>
      <trkpt lat="38.788563" lon="-9.293746">
        <time>1970-01-01T00:00:00+00:00</time>
        <ele>215.0</ele>
      </trkpt>
      <trkpt lat="38.788408" lon="-9.2939">
        <time>1970-01-01T00:00:00+00:00</time>
        <ele>215.0</ele>
      </trkpt>
      <trkpt lat="38.788487" lon="-9.294086">
        <time>1970-01-01T00:00:00+00:00</time>
        <ele>214.0</ele>
      </trkpt>
      <trkpt lat="38.788493" lon="-9.294156">
        <time>1970-01-01T00:00:00+00:00</time>
        <ele>214.0</ele>
      </trkpt>
      <trkpt lat="38.788613" lon="-9.294406">
        <time>1970-01-01T00:00:00+00:00</time>
        <ele>213.0</ele>
      </trkpt>
      <trkpt lat="38.789077" lon="-9.294096">
        <time>1970-01-01T00:00:00+00:00</time>
        <ele>212.0</ele>
      </trkpt>
      <trkpt lat="38.789258" lon="-9.293976">
        <time>1970-01-01T00:00:00+00:00</time>
        <ele>211.0</ele>
      </trkpt>
      <trkpt lat="38.790018" lon="-9.293468">
        <time>1970-01-01T00:00:00+00:00</time>
        <ele>208.0</ele>
      </trkpt>
      <trkpt lat="38.789647" lon="-9.292208">
        <time>1970-01-01T00:00:00+00:00</time>
        <ele>214.0</ele>
      </trkpt>
      <trkpt lat="38.789903" lon="-9.290815">
        <time>1970-01-01T00:00:00+00:00</time>
        <ele>212.0</ele>
      </trkpt>
      <trkpt lat="38.789818" lon="-9.290654">
        <time>1970-01-01T00:00:00+00:00</time>
        <ele>213.0</ele>
      </trkpt>
      <trkpt lat="38.789652" lon="-9.290506">
        <time>1970-01-01T00:00:00+00:00</time>
        <ele>215.0</ele>
      </trkpt>
      <trkpt lat="38.7895" lon="-9.290289">
        <time>1970-01-01T00:00:00+00:00</time>
        <ele>218.0</ele>
      </trkpt>
      <trkpt lat="38.789155" lon="-9.289592">
        <time>1970-01-01T00:00:00+00:00</time>
        <ele>226.0</ele>
      </trkpt>
      <trkpt lat="38.789021" lon="-9.289114">
        <time>1970-01-01T00:00:00+00:00</time>
        <ele>231.0</ele>
      </trkpt>
      <trkpt lat="38.789094" lon="-9.289007">
        <time>1970-01-01T00:00:00+00:00</time>
        <ele>229.0</ele>
      </trkpt>
      <trkpt lat="38.789254" lon="-9.288869">
        <time>1970-01-01T00:00:00+00:00</time>
        <ele>225.0</ele>
      </trkpt>
      <trkpt lat="38.789254" lon="-9.288869">
        <time>1970-01-01T00:00:00+00:00</time>
        <ele>225.0</ele>
      </trkpt>
      <trkpt lat="38.789094" lon="-9.289007">
        <time>1970-01-01T00:00:00+00:00</time>
        <ele>229.0</ele>
      </trkpt>
      <trkpt lat="38.789021" lon="-9.289114">
        <time>1970-01-01T00:00:00+00:00</time>
        <ele>231.0</ele>
      </trkpt>
      <trkpt lat="38.789155" lon="-9.289592">
        <time>1970-01-01T00:00:00+00:00</time>
        <ele>226.0</ele>
      </trkpt>
      <trkpt lat="38.7895" lon="-9.290289">
        <time>1970-01-01T00:00:00+00:00</time>
        <ele>218.0</ele>
      </trkpt>
      <trkpt lat="38.789652" lon="-9.290506">
        <time>1970-01-01T00:00:00+00:00</time>
        <ele>215.0</ele>
      </trkpt>
      <trkpt lat="38.789818" lon="-9.290654">
        <time>1970-01-01T00:00:00+00:00</time>
        <ele>213.0</ele>
      </trkpt>
      <trkpt lat="38.789903" lon="-9.290815">
        <time>1970-01-01T00:00:00+00:00</time>
        <ele>212.0</ele>
      </trkpt>
      <trkpt lat="38.789647" lon="-9.292208">
        <time>1970-01-01T00:00:00+00:00</time>
        <ele>214.0</ele>
      </trkpt>
      <trkpt lat="38.790018" lon="-9.293468">
        <time>1970-01-01T00:00:00+00:00</time>
        <ele>208.0</ele>
      </trkpt>
      <trkpt lat="38.789258" lon="-9.293976">
        <time>1970-01-01T00:00:00+00:00</time>
        <ele>211.0</ele>
      </trkpt>
      <trkpt lat="38.789077" lon="-9.294096">
        <time>1970-01-01T00:00:00+00:00</time>
        <ele>212.0</ele>
      </trkpt>
      <trkpt lat="38.788613" lon="-9.294406">
        <time>1970-01-01T00:00:00+00:00</time>
        <ele>213.0</ele>
      </trkpt>
      <trkpt lat="38.788493" lon="-9.294156">
        <time>1970-01-01T00:00:00+00:00</time>
        <ele>214.0</ele>
      </trkpt>
      <trkpt lat="38.788487" lon="-9.294086">
        <time>1970-01-01T00:00:00+00:00</time>
        <ele>214.0</ele>
      </trkpt>
      <trkpt lat="38.788408" lon="-9.2939">
        <time>1970-01-01T00:00:00+00:00</time>
        <ele>215.0</ele>
      </trkpt>
      <trkpt lat="38.788563" lon="-9.293746">
        <time>1970-01-01T00:00:00+00:00</time>
        <ele>215.0</ele>
      </trkpt>
      <trkpt lat="38.788685" lon="-9.294054">
        <time>1970-01-01T00:00:00+00:00</time>
        <ele>213.0</ele>
      </trkpt>
      <trkpt lat="38.788808" lon="-9.293959">
        <time>1970-01-01T00:00:00+00:00</time>
        <ele>213.0</ele>
      </trkpt>
    </trkseg>
  </trk>
</gpx>
